全部
Faith Ranch Airport (Carrizo Springs, TX) XA89 天气
There is no TAF data available at XA89 or any nearby airports.
There is no METAR data available at XA89. Showing METAR data for KCZT (25 mi NE).
CZT近期METAR历史数据(XA89无数据)
| Date | Time (CDT) | Flight Rules | Wind Dir. | Speed | Type | Height AGL (ft) | Visibility | Temp (°C) | Temp (°F) | Dew Point (°C) | Dew Point (°F) | Rel. Humid. | Pressure | Density Altitude | Remarks |
|---|---|---|---|---|---|---|---|---|---|---|---|---|---|---|---|
| 02-五月 | 22:15 | VFR | 160° | 3 kt | 10 miles | 16° | 60° | 13° | 55° | 82% | 30.17 in Hg | 468 ft | |||
| 02-五月 | 21:55 | VFR | 160° | 4 kt | 10 miles | 16° | 60° | 13° | 55° | 82% | 30.17 in Hg | 468 ft | |||
| 02-五月 | 21:35 | VFR | 150° | 3 kt | 10 miles | 16° | 60° | 13° | 55° | 82% | 30.16 in Hg | 478 ft | |||
| 02-五月 | 21:15 | VFR | 160° | 3 kt | 10 miles | 17° | 62° | 13° | 55° | 77% | 30.16 in Hg | 598 ft | |||
| 02-五月 | 20:55 | VFR | Calm | 10 miles | 18° | 64° | 12° | 53° | 68% | 30.15 in Hg | 728 ft | ||||
| 02-五月 | 20:35 | VFR | 140° | 3 kt | 10 miles | 19° | 66° | 9° | 48° | 52% | 30.14 in Hg | 858 ft | |||
| 02-五月 | 20:15 | VFR | 130° | 4 kt | 10 miles | 20° | 68° | 8° | 46° | 46% | 30.13 in Hg | 988 ft | |||
| 02-五月 | 19:55 | VFR | 130° | 3 kt | 10 miles | 22° | 71° | 8° | 46° | 41% | 30.12 in Hg | 1,238 ft | |||
| 02-五月 | 19:35 | VFR | 120° | 5 kt | 10 miles | 22° | 71° | 8° | 46° | 41% | 30.12 in Hg | 1,238 ft | |||
| 02-五月 | 19:15 | VFR | 120° | 3 kt | 10 miles | 23° | 73° | 8° | 46° | 38% | 30.12 in Hg | 1,358 ft | |||
| 02-五月 | 18:55 | VFR | 100° | 5 kt | 10 miles | 24° | 75° | 8° | 46° | 36% | 30.12 in Hg | 1,478 ft | |||
| 02-五月 | 18:15 | VFR | 90° | 5 kt | 10 miles | 25° | 77° | 9° | 48° | 36% | 30.12 in Hg | 1,598 ft | |||
| 02-五月 | 17:55 | VFR | 80° | 5 kt | 10 miles | 25° | 77° | 9° | 48° | 36% | 30.12 in Hg | 1,598 ft | |||
| 02-五月 | 17:35 | VFR | 70° | 3 kt | 10 miles | 24° | 75° | 8° | 46° | 36% | 30.13 in Hg | 1,468 ft | |||
| 02-五月 | 17:15 | VFR | 80° | 4 kt | 10 miles | 25° | 77° | 9° | 48° | 36% | 30.13 in Hg | 1,588 ft | |||
| 02-五月 | 16:55 | VFR | 110° | 9 kt | 10 miles | 25° | 77° | 9° | 48° | 36% | 30.13 in Hg | 1,588 ft | |||
| 02-五月 | 16:35 | VFR | 60° | 4 kt | 10 miles | 25° | 77° | 8° | 46° | 34% | 30.13 in Hg | 1,588 ft | |||
| 02-五月 | 16:15 | VFR | 70° | 3 kt | 10 miles | 25° | 77° | 9° | 48° | 36% | 30.14 in Hg | 1,578 ft | Wind gusting to 14 KT | ||
| 02-五月 | 15:55 | VFR | 90° | 7 kt | 10 miles | 25° | 77° | 9° | 48° | 36% | 30.15 in Hg | 1,568 ft | |||
| 02-五月 | 15:15 | VFR | 50° | 8 kt | 10 miles | 24° | 75° | 8° | 46° | 36% | 30.16 in Hg | 1,438 ft | |||
| 02-五月 | 14:55 | VFR | 50° | 3 kt | 10 miles | 23° | 73° | 8° | 46° | 38% | 30.16 in Hg | 1,318 ft | Wind gusting to 14 KT | ||
| 02-五月 | 14:35 | VFR | Calm | 10 miles | 24° | 75° | 9° | 48° | 38% | 30.17 in Hg | 1,428 ft | ||||
| 02-五月 | 14:15 | VFR | 100° | 5 kt | 10 miles | 22° | 71° | 8° | 46° | 41% | 30.17 in Hg | 1,188 ft | |||
| 02-五月 | 13:55 | VFR | 50° | 10 kt | 10 miles | 23° | 73° | 8° | 46° | 38% | 30.18 in Hg | 1,298 ft | Wind gusting to 15 KT |
登录
| 您的浏览器不支持. 升级您的浏览器 |
